locationName,lineName,date,time,countIn,countOut
��Ƃ�̍L��,��������,2022/7/1,0:00,9,3
��Ƃ�̍L��,��������,2022/7/1,1:00,17,1
��Ƃ�̍L��,��������,2022/7/1,2:00,4,4
��Ƃ�̍L��,��������,2022/7/1,3:00,2,1
��Ƃ�̍L��,��������,2022/7/1,4:00,5,2
��Ƃ�̍L��,��������,2022/7/1,5:00,8,3
��Ƃ�̍L��,��������,2022/7/1,6:00,15,6
��Ƃ�̍L��,��������,2022/7/1,7:00,35,13
��Ƃ�̍L��,��������,2022/7/1,8:00,34,29
��Ƃ�̍L��,��������,2022/7/1,9:00,42,20
��Ƃ�̍L��,��������,2022/7/1,10:00,60,29
��Ƃ�̍L��,��������,2022/7/1,11:00,45,21
��Ƃ�̍L��,��������,2022/7/1,12:00,54,22
��Ƃ�̍L��,��������,2022/7/1,13:00,57,12
��Ƃ�̍L��,��������,2022/7/1,14:00,30,13
��Ƃ�̍L��,��������,2022/7/1,15:00,29,21
��Ƃ�̍L��,��������,2022/7/1,16:00,65,21
��Ƃ�̍L��,��������,2022/7/1,17:00,60,22
��Ƃ�̍L��,��������,2022/7/1,18:00,58,22
��Ƃ�̍L��,��������,2022/7/1,19:00,31,19
��Ƃ�̍L��,��������,2022/7/1,20:00,25,18
��Ƃ�̍L��,��������,2022/7/1,21:00,32,8
��Ƃ�̍L��,��������,2022/7/1,22:00,22,12
��Ƃ�̍L��,��������,2022/7/1,23:00,14,12
��Ƃ�̍L��,��������,2022/7/2,0:00,11,6
��Ƃ�̍L��,��������,2022/7/2,1:00,14,5
��Ƃ�̍L��,��������,2022/7/2,2:00,20,8
��Ƃ�̍L��,��������,2022/7/2,3:00,4,2
��Ƃ�̍L��,��������,2022/7/2,4:00,2,0
��Ƃ�̍L��,��������,2022/7/2,5:00,12,4
��Ƃ�̍L��,��������,2022/7/2,6:00,21,6
��Ƃ�̍L��,��������,2022/7/2,7:00,18,13
��Ƃ�̍L��,��������,2022/7/2,8:00,24,18
��Ƃ�̍L��,��������,2022/7/2,9:00,49,28
��Ƃ�̍L��,��������,2022/7/2,10:00,53,30
��Ƃ�̍L��,��������,2022/7/2,11:00,57,47
��Ƃ�̍L��,��������,2022/7/2,12:00,110,25
��Ƃ�̍L��,��������,2022/7/2,13:00,75,38
��Ƃ�̍L��,��������,2022/7/2,14:00,89,29
��Ƃ�̍L��,��������,2022/7/2,15:00,63,22
��Ƃ�̍L��,��������,2022/7/2,16:00,58,25
��Ƃ�̍L��,��������,2022/7/2,17:00,52,18
��Ƃ�̍L��,��������,2022/7/2,18:00,50,31
��Ƃ�̍L��,��������,2022/7/2,19:00,54,28
��Ƃ�̍L��,��������,2022/7/2,20:00,31,19
��Ƃ�̍L��,��������,2022/7/2,21:00,27,20
��Ƃ�̍L��,��������,2022/7/2,22:00,25,9
��Ƃ�̍L��,��������,2022/7/2,23:00,30,16
��Ƃ�̍L��,��������,2022/7/3,0:00,26,5
��Ƃ�̍L��,��������,2022/7/3,1:00,12,8
��Ƃ�̍L��,��������,2022/7/3,2:00,7,1
��Ƃ�̍L��,��������,2022/7/3,3:00,4,3
��Ƃ�̍L��,��������,2022/7/3,4:00,7,3
��Ƃ�̍L��,��������,2022/7/3,5:00,18,2
��Ƃ�̍L��,��������,2022/7/3,6:00,9,9
��Ƃ�̍L��,��������,2022/7/3,7:00,24,7
��Ƃ�̍L��,��������,2022/7/3,8:00,51,15
��Ƃ�̍L��,��������,2022/7/3,9:00,35,14
��Ƃ�̍L��,��������,2022/7/3,10:00,53,21
��Ƃ�̍L��,��������,2022/7/3,11:00,55,25
��Ƃ�̍L��,��������,2022/7/3,12:00,94,47
��Ƃ�̍L��,��������,2022/7/3,13:00,80,34
��Ƃ�̍L��,��������,2022/7/3,14:00,87,19
��Ƃ�̍L��,��������,2022/7/3,15:00,34,18
��Ƃ�̍L��,��������,2022/7/3,16:00,43,20
��Ƃ�̍L��,��������,2022/7/3,17:00,64,19
��Ƃ�̍L��,��������,2022/7/3,18:00,36,14
��Ƃ�̍L��,��������,2022/7/3,19:00,24,13
��Ƃ�̍L��,��������,2022/7/3,20:00,25,7
��Ƃ�̍L��,��������,2022/7/3,21:00,13,3
��Ƃ�̍L��,��������,2022/7/3,22:00,17,2
��Ƃ�̍L��,��������,2022/7/3,23:00,6,1
��Ƃ�̍L��,��������,2022/7/4,0:00,2,5
��Ƃ�̍L��,��������,2022/7/4,1:00,2,1
��Ƃ�̍L��,��������,2022/7/4,2:00,3,3
��Ƃ�̍L��,��������,2022/7/4,3:00,4,0
��Ƃ�̍L��,��������,2022/7/4,4:00,1,2
��Ƃ�̍L��,��������,2022/7/4,5:00,12,6
��Ƃ�̍L��,��������,2022/7/4,6:00,19,4
��Ƃ�̍L��,��������,2022/7/4,7:00,17,10
��Ƃ�̍L��,��������,2022/7/4,8:00,39,36
��Ƃ�̍L��,��������,2022/7/4,9:00,31,18
��Ƃ�̍L��,��������,2022/7/4,10:00,60,30
��Ƃ�̍L��,��������,2022/7/4,11:00,60,35
��Ƃ�̍L��,��������,2022/7/4,12:00,56,15
��Ƃ�̍L��,��������,2022/7/4,13:00,73,14
��Ƃ�̍L��,��������,2022/7/4,14:00,37,16
��Ƃ�̍L��,��������,2022/7/4,15:00,42,21
��Ƃ�̍L��,��������,2022/7/4,16:00,62,17
��Ƃ�̍L��,��������,2022/7/4,17:00,75,19
��Ƃ�̍L��,��������,2022/7/4,18:00,71,15
��Ƃ�̍L��,��������,2022/7/4,19:00,31,11
��Ƃ�̍L��,��������,2022/7/4,20:00,21,8
��Ƃ�̍L��,��������,2022/7/4,21:00,16,10
��Ƃ�̍L��,��������,2022/7/4,22:00,12,2
��Ƃ�̍L��,��������,2022/7/4,23:00,7,4
��Ƃ�̍L��,��������,2022/7/5,0:00,3,1
��Ƃ�̍L��,��������,2022/7/5,1:00,4,3
��Ƃ�̍L��,��������,2022/7/5,2:00,2,0
��Ƃ�̍L��,��������,2022/7/5,3:00,6,2
��Ƃ�̍L��,��������,2022/7/5,4:00,2,1
��Ƃ�̍L��,��������,2022/7/5,5:00,11,3
��Ƃ�̍L��,��������,2022/7/5,6:00,17,4
��Ƃ�̍L��,��������,2022/7/5,7:00,29,20
��Ƃ�̍L��,��������,2022/7/5,8:00,45,31
��Ƃ�̍L��,��������,2022/7/5,9:00,59,24
��Ƃ�̍L��,��������,2022/7/5,10:00,57,33
��Ƃ�̍L��,��������,2022/7/5,11:00,42,31
��Ƃ�̍L��,��������,2022/7/5,12:00,75,28
��Ƃ�̍L��,��������,2022/7/5,13:00,44,20
��Ƃ�̍L��,��������,2022/7/5,14:00,55,7
��Ƃ�̍L��,��������,2022/7/5,15:00,50,23
��Ƃ�̍L��,��������,2022/7/5,16:00,61,24
��Ƃ�̍L��,��������,2022/7/5,17:00,76,20
��Ƃ�̍L��,��������,2022/7/5,18:00,72,29
��Ƃ�̍L��,��������,2022/7/5,19:00,31,17
��Ƃ�̍L��,��������,2022/7/5,20:00,30,17
��Ƃ�̍L��,��������,2022/7/5,21:00,25,12
��Ƃ�̍L��,��������,2022/7/5,22:00,13,6
��Ƃ�̍L��,��������,2022/7/5,23:00,11,4
��Ƃ�̍L��,��������,2022/7/6,0:00,14,1
��Ƃ�̍L��,��������,2022/7/6,1:00,10,2
��Ƃ�̍L��,��������,2022/7/6,2:00,3,2
��Ƃ�̍L��,��������,2022/7/6,3:00,4,1
��Ƃ�̍L��,��������,2022/7/6,4:00,8,0
��Ƃ�̍L��,��������,2022/7/6,5:00,5,1
��Ƃ�̍L��,��������,2022/7/6,6:00,20,7
��Ƃ�̍L��,��������,2022/7/6,7:00,30,12
��Ƃ�̍L��,��������,2022/7/6,8:00,30,32
��Ƃ�̍L��,��������,2022/7/6,9:00,40,24
��Ƃ�̍L��,��������,2022/7/6,10:00,52,38
��Ƃ�̍L��,��������,2022/7/6,11:00,55,28
��Ƃ�̍L��,��������,2022/7/6,12:00,50,19
��Ƃ�̍L��,��������,2022/7/6,13:00,39,18
��Ƃ�̍L��,��������,2022/7/6,14:00,45,15
��Ƃ�̍L��,��������,2022/7/6,15:00,38,12
��Ƃ�̍L��,��������,2022/7/6,16:00,83,24
��Ƃ�̍L��,��������,2022/7/6,17:00,65,33
��Ƃ�̍L��,��������,2022/7/6,18:00,60,21
��Ƃ�̍L��,��������,2022/7/6,19:00,24,16
��Ƃ�̍L��,��������,2022/7/6,20:00,25,14
��Ƃ�̍L��,��������,2022/7/6,21:00,35,16
��Ƃ�̍L��,��������,2022/7/6,22:00,16,8
��Ƃ�̍L��,��������,2022/7/6,23:00,10,5
��Ƃ�̍L��,��������,2022/7/7,0:00,5,3
��Ƃ�̍L��,��������,2022/7/7,1:00,7,2
��Ƃ�̍L��,��������,2022/7/7,2:00,7,1
��Ƃ�̍L��,��������,2022/7/7,3:00,9,1
��Ƃ�̍L��,��������,2022/7/7,4:00,4,2
��Ƃ�̍L��,��������,2022/7/7,5:00,10,2
��Ƃ�̍L��,��������,2022/7/7,6:00,12,5
��Ƃ�̍L��,��������,2022/7/7,7:00,38,12
��Ƃ�̍L��,��������,2022/7/7,8:00,26,26
��Ƃ�̍L��,��������,2022/7/7,9:00,41,18
��Ƃ�̍L��,��������,2022/7/7,10:00,60,29
��Ƃ�̍L��,��������,2022/7/7,11:00,56,12
��Ƃ�̍L��,��������,2022/7/7,12:00,59,26
��Ƃ�̍L��,��������,2022/7/7,13:00,47,24
��Ƃ�̍L��,��������,2022/7/7,14:00,26,15
��Ƃ�̍L��,��������,2022/7/7,15:00,33,19
��Ƃ�̍L��,��������,2022/7/7,16:00,51,19
��Ƃ�̍L��,��������,2022/7/7,17:00,67,27
��Ƃ�̍L��,��������,2022/7/7,18:00,70,20
��Ƃ�̍L��,��������,2022/7/7,19:00,28,19
��Ƃ�̍L��,��������,2022/7/7,20:00,31,12
��Ƃ�̍L��,��������,2022/7/7,21:00,24,18
��Ƃ�̍L��,��������,2022/7/7,22:00,21,12
��Ƃ�̍L��,��������,2022/7/7,23:00,11,6
��Ƃ�̍L��,��������,2022/7/8,0:00,9,3
��Ƃ�̍L��,��������,2022/7/8,1:00,9,2
��Ƃ�̍L��,��������,2022/7/8,2:00,6,0
��Ƃ�̍L��,��������,2022/7/8,3:00,6,0
��Ƃ�̍L��,��������,2022/7/8,4:00,3,4
��Ƃ�̍L��,��������,2022/7/8,5:00,18,2
��Ƃ�̍L��,��������,2022/7/8,6:00,22,3
��Ƃ�̍L��,��������,2022/7/8,7:00,23,16
��Ƃ�̍L��,��������,2022/7/8,8:00,37,33
��Ƃ�̍L��,��������,2022/7/8,9:00,55,18
��Ƃ�̍L��,��������,2022/7/8,10:00,61,42
��Ƃ�̍L��,��������,2022/7/8,11:00,72,33
��Ƃ�̍L��,��������,2022/7/8,12:00,53,23
��Ƃ�̍L��,��������,2022/7/8,13:00,46,15
��Ƃ�̍L��,��������,2022/7/8,14:00,42,24
��Ƃ�̍L��,��������,2022/7/8,15:00,56,29
��Ƃ�̍L��,��������,2022/7/8,16:00,72,33
��Ƃ�̍L��,��������,2022/7/8,17:00,53,34
��Ƃ�̍L��,��������,2022/7/8,18:00,92,36
��Ƃ�̍L��,��������,2022/7/8,19:00,26,11
��Ƃ�̍L��,��������,2022/7/8,20:00,25,9
��Ƃ�̍L��,��������,2022/7/8,21:00,31,21
��Ƃ�̍L��,��������,2022/7/8,22:00,30,12
��Ƃ�̍L��,��������,2022/7/8,23:00,14,8
��Ƃ�̍L��,��������,2022/7/9,0:00,12,10
��Ƃ�̍L��,��������,2022/7/9,1:00,20,6
��Ƃ�̍L��,��������,2022/7/9,2:00,10,0
��Ƃ�̍L��,��������,2022/7/9,3:00,4,2
��Ƃ�̍L��,��������,2022/7/9,4:00,4,1
��Ƃ�̍L��,��������,2022/7/9,5:00,14,2
��Ƃ�̍L��,��������,2022/7/9,6:00,18,3
��Ƃ�̍L��,��������,2022/7/9,7:00,34,12
��Ƃ�̍L��,��������,2022/7/9,8:00,36,18
��Ƃ�̍L��,��������,2022/7/9,9:00,63,40
��Ƃ�̍L��,��������,2022/7/9,10:00,78,42
��Ƃ�̍L��,��������,2022/7/9,11:00,82,35
��Ƃ�̍L��,��������,2022/7/9,12:00,116,43
��Ƃ�̍L��,��������,2022/7/9,13:00,105,41
��Ƃ�̍L��,��������,2022/7/9,14:00,89,38
��Ƃ�̍L��,��������,2022/7/9,15:00,57,30
��Ƃ�̍L��,��������,2022/7/9,16:00,55,32
��Ƃ�̍L��,��������,2022/7/9,17:00,71,33
��Ƃ�̍L��,��������,2022/7/9,18:00,50,23
��Ƃ�̍L��,��������,2022/7/9,19:00,49,28
��Ƃ�̍L��,��������,2022/7/9,20:00,49,16
��Ƃ�̍L��,��������,2022/7/9,21:00,39,21
��Ƃ�̍L��,��������,2022/7/9,22:00,26,14
��Ƃ�̍L��,��������,2022/7/9,23:00,23,7
��Ƃ�̍L��,��������,2022/7/10,0:00,17,7
��Ƃ�̍L��,��������,2022/7/10,1:00,11,2
��Ƃ�̍L��,��������,2022/7/10,2:00,27,6
��Ƃ�̍L��,��������,2022/7/10,3:00,5,0
��Ƃ�̍L��,��������,2022/7/10,4:00,3,1
��Ƃ�̍L��,��������,2022/7/10,5:00,16,7
��Ƃ�̍L��,��������,2022/7/10,6:00,21,8
��Ƃ�̍L��,��������,2022/7/10,7:00,20,10
��Ƃ�̍L��,��������,2022/7/10,8:00,28,18
��Ƃ�̍L��,��������,2022/7/10,9:00,32,14
��Ƃ�̍L��,��������,2022/7/10,10:00,58,17
��Ƃ�̍L��,��������,2022/7/10,11:00,96,34
��Ƃ�̍L��,��������,2022/7/10,12:00,114,40
��Ƃ�̍L��,��������,2022/7/10,13:00,94,32
��Ƃ�̍L��,��������,2022/7/10,14:00,111,47
��Ƃ�̍L��,��������,2022/7/10,15:00,70,36
��Ƃ�̍L��,��������,2022/7/10,16:00,57,25
��Ƃ�̍L��,��������,2022/7/10,17:00,35,21
��Ƃ�̍L��,��������,2022/7/10,18:00,29,18
��Ƃ�̍L��,��������,2022/7/10,19:00,35,11
��Ƃ�̍L��,��������,2022/7/10,20:00,20,16
��Ƃ�̍L��,��������,2022/7/10,21:00,23,12
��Ƃ�̍L��,��������,2022/7/10,22:00,14,5
��Ƃ�̍L��,��������,2022/7/10,23:00,9,5
��Ƃ�̍L��,��������,2022/7/11,0:00,6,3
��Ƃ�̍L��,��������,2022/7/11,1:00,4,0
��Ƃ�̍L��,��������,2022/7/11,2:00,4,1
��Ƃ�̍L��,��������,2022/7/11,3:00,1,1
��Ƃ�̍L��,��������,2022/7/11,4:00,1,2
��Ƃ�̍L��,��������,2022/7/11,5:00,14,0
��Ƃ�̍L��,��������,2022/7/11,6:00,19,9
��Ƃ�̍L��,��������,2022/7/11,7:00,34,17
��Ƃ�̍L��,��������,2022/7/11,8:00,37,31
��Ƃ�̍L��,��������,2022/7/11,9:00,42,24
��Ƃ�̍L��,��������,2022/7/11,10:00,49,26
��Ƃ�̍L��,��������,2022/7/11,11:00,38,27
��Ƃ�̍L��,��������,2022/7/11,12:00,61,22
��Ƃ�̍L��,��������,2022/7/11,13:00,48,19
��Ƃ�̍L��,��������,2022/7/11,14:00,54,19
��Ƃ�̍L��,��������,2022/7/11,15:00,49,16
��Ƃ�̍L��,��������,2022/7/11,16:00,77,15
��Ƃ�̍L��,��������,2022/7/11,17:00,90,26
��Ƃ�̍L��,��������,2022/7/11,18:00,67,22
��Ƃ�̍L��,��������,2022/7/11,19:00,28,17
��Ƃ�̍L��,��������,2022/7/11,20:00,11,7
��Ƃ�̍L��,��������,2022/7/11,21:00,22,8
��Ƃ�̍L��,��������,2022/7/11,22:00,26,3
��Ƃ�̍L��,��������,2022/7/11,23:00,5,3
��Ƃ�̍L��,��������,2022/7/12,0:00,2,1
��Ƃ�̍L��,��������,2022/7/12,1:00,3,2
��Ƃ�̍L��,��������,2022/7/12,2:00,1,1
��Ƃ�̍L��,��������,2022/7/12,3:00,8,0
��Ƃ�̍L��,��������,2022/7/12,4:00,3,2
��Ƃ�̍L��,��������,2022/7/12,5:00,9,0
��Ƃ�̍L��,��������,2022/7/12,6:00,15,11
��Ƃ�̍L��,��������,2022/7/12,7:00,34,11
��Ƃ�̍L��,��������,2022/7/12,8:00,45,25
��Ƃ�̍L��,��������,2022/7/12,9:00,43,24
��Ƃ�̍L��,��������,2022/7/12,10:00,41,20
��Ƃ�̍L��,��������,2022/7/12,11:00,51,17
��Ƃ�̍L��,��������,2022/7/12,12:00,50,24
��Ƃ�̍L��,��������,2022/7/12,13:00,67,26
��Ƃ�̍L��,��������,2022/7/12,14:00,39,19
��Ƃ�̍L��,��������,2022/7/12,15:00,62,29
��Ƃ�̍L��,��������,2022/7/12,16:00,62,19
��Ƃ�̍L��,��������,2022/7/12,17:00,68,31
��Ƃ�̍L��,��������,2022/7/12,18:00,82,17
��Ƃ�̍L��,��������,2022/7/12,19:00,26,11
��Ƃ�̍L��,��������,2022/7/12,20:00,41,15
��Ƃ�̍L��,��������,2022/7/12,21:00,34,9
��Ƃ�̍L��,��������,2022/7/12,22:00,17,9
��Ƃ�̍L��,��������,2022/7/12,23:00,7,3
��Ƃ�̍L��,��������,2022/7/13,0:00,12,7
��Ƃ�̍L��,��������,2022/7/13,1:00,5,1
��Ƃ�̍L��,��������,2022/7/13,2:00,8,3
��Ƃ�̍L��,��������,2022/7/13,3:00,3,1
��Ƃ�̍L��,��������,2022/7/13,4:00,8,2
��Ƃ�̍L��,��������,2022/7/13,5:00,18,2
��Ƃ�̍L��,��������,2022/7/13,6:00,20,5
��Ƃ�̍L��,��������,2022/7/13,7:00,29,16
��Ƃ�̍L��,��������,2022/7/13,8:00,29,30
��Ƃ�̍L��,��������,2022/7/13,9:00,35,22
��Ƃ�̍L��,��������,2022/7/13,10:00,53,18
��Ƃ�̍L��,��������,2022/7/13,11:00,59,23
��Ƃ�̍L��,��������,2022/7/13,12:00,64,29
��Ƃ�̍L��,��������,2022/7/13,13:00,55,28
��Ƃ�̍L��,��������,2022/7/13,14:00,43,13
��Ƃ�̍L��,��������,2022/7/13,15:00,53,36
��Ƃ�̍L��,��������,2022/7/13,16:00,84,15
��Ƃ�̍L��,��������,2022/7/13,17:00,76,43
��Ƃ�̍L��,��������,2022/7/13,18:00,51,22
��Ƃ�̍L��,��������,2022/7/13,19:00,30,12
��Ƃ�̍L��,��������,2022/7/13,20:00,38,12
��Ƃ�̍L��,��������,2022/7/13,21:00,24,11
��Ƃ�̍L��,��������,2022/7/13,22:00,10,8
��Ƃ�̍L��,��������,2022/7/13,23:00,8,9
��Ƃ�̍L��,��������,2022/7/14,0:00,16,4
��Ƃ�̍L��,��������,2022/7/14,1:00,7,2
��Ƃ�̍L��,��������,2022/7/14,2:00,5,1
��Ƃ�̍L��,��������,2022/7/14,3:00,8,1
��Ƃ�̍L��,��������,2022/7/14,4:00,5,1
��Ƃ�̍L��,��������,2022/7/14,5:00,14,1
��Ƃ�̍L��,��������,2022/7/14,6:00,20,5
��Ƃ�̍L��,��������,2022/7/14,7:00,31,18
��Ƃ�̍L��,��������,2022/7/14,8:00,37,38
��Ƃ�̍L��,��������,2022/7/14,9:00,43,21
��Ƃ�̍L��,��������,2022/7/14,10:00,50,29
��Ƃ�̍L��,��������,2022/7/14,11:00,60,27
��Ƃ�̍L��,��������,2022/7/14,12:00,41,25
��Ƃ�̍L��,��������,2022/7/14,13:00,32,14
��Ƃ�̍L��,��������,2022/7/14,14:00,42,9
��Ƃ�̍L��,��������,2022/7/14,15:00,53,27
��Ƃ�̍L��,��������,2022/7/14,16:00,74,44
��Ƃ�̍L��,��������,2022/7/14,17:00,61,27
��Ƃ�̍L��,��������,2022/7/14,18:00,93,20
��Ƃ�̍L��,��������,2022/7/14,19:00,28,17
��Ƃ�̍L��,��������,2022/7/14,20:00,17,14
��Ƃ�̍L��,��������,2022/7/14,21:00,33,13
��Ƃ�̍L��,��������,2022/7/14,22:00,17,7
��Ƃ�̍L��,��������,2022/7/14,23:00,13,5
��Ƃ�̍L��,��������,2022/7/15,0:00,2,1
��Ƃ�̍L��,��������,2022/7/15,1:00,7,1
��Ƃ�̍L��,��������,2022/7/15,2:00,7,1
��Ƃ�̍L��,��������,2022/7/15,3:00,10,0
��Ƃ�̍L��,��������,2022/7/15,4:00,4,1
��Ƃ�̍L��,��������,2022/7/15,5:00,16,1
��Ƃ�̍L��,��������,2022/7/15,6:00,30,2
��Ƃ�̍L��,��������,2022/7/15,7:00,79,32
��Ƃ�̍L��,��������,2022/7/15,8:00,34,38
��Ƃ�̍L��,��������,2022/7/15,9:00,51,23
��Ƃ�̍L��,��������,2022/7/15,10:00,68,26
��Ƃ�̍L��,��������,2022/7/15,11:00,56,30
��Ƃ�̍L��,��������,2022/7/15,12:00,61,28
��Ƃ�̍L��,��������,2022/7/15,13:00,42,21
��Ƃ�̍L��,��������,2022/7/15,14:00,46,20
��Ƃ�̍L��,��������,2022/7/15,15:00,47,28
��Ƃ�̍L��,��������,2022/7/15,16:00,84,31
��Ƃ�̍L��,��������,2022/7/15,17:00,70,41
��Ƃ�̍L��,��������,2022/7/15,18:00,73,30
��Ƃ�̍L��,��������,2022/7/15,19:00,44,22
��Ƃ�̍L��,��������,2022/7/15,20:00,34,14
��Ƃ�̍L��,��������,2022/7/15,21:00,21,16
��Ƃ�̍L��,��������,2022/7/15,22:00,38,14
��Ƃ�̍L��,��������,2022/7/15,23:00,23,6
��Ƃ�̍L��,��������,2022/7/16,0:00,19,9
��Ƃ�̍L��,��������,2022/7/16,1:00,11,3
��Ƃ�̍L��,��������,2022/7/16,2:00,8,3
��Ƃ�̍L��,��������,2022/7/16,3:00,9,1
��Ƃ�̍L��,��������,2022/7/16,4:00,6,4
��Ƃ�̍L��,��������,2022/7/16,5:00,13,6
��Ƃ�̍L��,��������,2022/7/16,6:00,13,2
��Ƃ�̍L��,��������,2022/7/16,7:00,30,13
��Ƃ�̍L��,��������,2022/7/16,8:00,51,21
��Ƃ�̍L��,��������,2022/7/16,9:00,56,24
��Ƃ�̍L��,��������,2022/7/16,10:00,89,41
��Ƃ�̍L��,��������,2022/7/16,11:00,78,46
��Ƃ�̍L��,��������,2022/7/16,12:00,113,52
��Ƃ�̍L��,��������,2022/7/16,13:00,123,59
��Ƃ�̍L��,��������,2022/7/16,14:00,112,41
��Ƃ�̍L��,��������,2022/7/16,15:00,91,34
��Ƃ�̍L��,��������,2022/7/16,16:00,66,27
��Ƃ�̍L��,��������,2022/7/16,17:00,64,39
��Ƃ�̍L��,��������,2022/7/16,18:00,74,30
��Ƃ�̍L��,��������,2022/7/16,19:00,54,24
��Ƃ�̍L��,��������,2022/7/16,20:00,50,23
��Ƃ�̍L��,��������,2022/7/16,21:00,38,22
��Ƃ�̍L��,��������,2022/7/16,22:00,31,11
��Ƃ�̍L��,��������,2022/7/16,23:00,13,4
��Ƃ�̍L��,��������,2022/7/17,0:00,12,9
��Ƃ�̍L��,��������,2022/7/17,1:00,14,4
��Ƃ�̍L��,��������,2022/7/17,2:00,17,4
��Ƃ�̍L��,��������,2022/7/17,3:00,6,4
��Ƃ�̍L��,��������,2022/7/17,4:00,5,1
��Ƃ�̍L��,��������,2022/7/17,5:00,13,7
��Ƃ�̍L��,��������,2022/7/17,6:00,30,10
��Ƃ�̍L��,��������,2022/7/17,7:00,34,9
��Ƃ�̍L��,��������,2022/7/17,8:00,48,17
��Ƃ�̍L��,��������,2022/7/17,9:00,48,22
��Ƃ�̍L��,��������,2022/7/17,10:00,108,40
��Ƃ�̍L��,��������,2022/7/17,11:00,113,46
��Ƃ�̍L��,��������,2022/7/17,12:00,166,75
��Ƃ�̍L��,��������,2022/7/17,13:00,127,58
��Ƃ�̍L��,��������,2022/7/17,14:00,129,67
��Ƃ�̍L��,��������,2022/7/17,15:00,125,68
��Ƃ�̍L��,��������,2022/7/17,16:00,90,53
��Ƃ�̍L��,��������,2022/7/17,17:00,87,46
��Ƃ�̍L��,��������,2022/7/17,18:00,63,36
��Ƃ�̍L��,��������,2022/7/17,19:00,34,21
��Ƃ�̍L��,��������,2022/7/17,20:00,33,19
��Ƃ�̍L��,��������,2022/7/17,21:00,25,13
��Ƃ�̍L��,��������,2022/7/17,22:00,15,5
��Ƃ�̍L��,��������,2022/7/17,23:00,15,5
��Ƃ�̍L��,��������,2022/7/18,0:00,13,4
��Ƃ�̍L��,��������,2022/7/18,1:00,5,4
��Ƃ�̍L��,��������,2022/7/18,2:00,12,1
��Ƃ�̍L��,��������,2022/7/18,3:00,6,0
��Ƃ�̍L��,��������,2022/7/18,4:00,8,5
��Ƃ�̍L��,��������,2022/7/18,5:00,10,4
��Ƃ�̍L��,��������,2022/7/18,6:00,24,5
��Ƃ�̍L��,��������,2022/7/18,7:00,30,9
��Ƃ�̍L��,��������,2022/7/18,8:00,28,10
��Ƃ�̍L��,��������,2022/7/18,9:00,56,21
��Ƃ�̍L��,��������,2022/7/18,10:00,66,36
��Ƃ�̍L��,��������,2022/7/18,11:00,102,39
��Ƃ�̍L��,��������,2022/7/18,12:00,106,50
��Ƃ�̍L��,��������,2022/7/18,13:00,105,60
��Ƃ�̍L��,��������,2022/7/18,14:00,120,66
��Ƃ�̍L��,��������,2022/7/18,15:00,58,38
��Ƃ�̍L��,��������,2022/7/18,16:00,48,35
��Ƃ�̍L��,��������,2022/7/18,17:00,52,30
��Ƃ�̍L��,��������,2022/7/18,18:00,26,9
��Ƃ�̍L��,��������,2022/7/18,19:00,31,11
��Ƃ�̍L��,��������,2022/7/18,20:00,23,9
��Ƃ�̍L��,��������,2022/7/18,21:00,16,7
��Ƃ�̍L��,��������,2022/7/18,22:00,11,2
��Ƃ�̍L��,��������,2022/7/18,23:00,6,5
��Ƃ�̍L��,��������,2022/7/19,0:00,9,1
��Ƃ�̍L��,��������,2022/7/19,1:00,4,2
��Ƃ�̍L��,��������,2022/7/19,2:00,2,0
��Ƃ�̍L��,��������,2022/7/19,3:00,5,0
��Ƃ�̍L��,��������,2022/7/19,4:00,4,0
��Ƃ�̍L��,��������,2022/7/19,5:00,7,0
��Ƃ�̍L��,��������,2022/7/19,6:00,17,6
��Ƃ�̍L��,��������,2022/7/19,7:00,35,12
��Ƃ�̍L��,��������,2022/7/19,8:00,32,32
��Ƃ�̍L��,��������,2022/7/19,9:00,49,26
��Ƃ�̍L��,��������,2022/7/19,10:00,60,30
��Ƃ�̍L��,��������,2022/7/19,11:00,46,25
��Ƃ�̍L��,��������,2022/7/19,12:00,56,39
��Ƃ�̍L��,��������,2022/7/19,13:00,55,22
��Ƃ�̍L��,��������,2022/7/19,14:00,43,28
��Ƃ�̍L��,��������,2022/7/19,15:00,29,25
��Ƃ�̍L��,��������,2022/7/19,16:00,62,16
��Ƃ�̍L��,��������,2022/7/19,17:00,97,22
��Ƃ�̍L��,��������,2022/7/19,18:00,79,23
��Ƃ�̍L��,��������,2022/7/19,19:00,26,16
��Ƃ�̍L��,��������,2022/7/19,20:00,33,11
��Ƃ�̍L��,��������,2022/7/19,21:00,25,13
��Ƃ�̍L��,��������,2022/7/19,22:00,22,13
��Ƃ�̍L��,��������,2022/7/19,23:00,6,4
��Ƃ�̍L��,��������,2022/7/20,0:00,17,3
��Ƃ�̍L��,��������,2022/7/20,1:00,8,2
��Ƃ�̍L��,��������,2022/7/20,2:00,4,2
��Ƃ�̍L��,��������,2022/7/20,3:00,0,1
��Ƃ�̍L��,��������,2022/7/20,4:00,3,2
��Ƃ�̍L��,��������,2022/7/20,5:00,13,4
��Ƃ�̍L��,��������,2022/7/20,6:00,31,14
��Ƃ�̍L��,��������,2022/7/20,7:00,29,19
��Ƃ�̍L��,��������,2022/7/20,8:00,30,29
��Ƃ�̍L��,��������,2022/7/20,9:00,55,23
��Ƃ�̍L��,��������,2022/7/20,10:00,51,30
��Ƃ�̍L��,��������,2022/7/20,11:00,61,41
��Ƃ�̍L��,��������,2022/7/20,12:00,85,20
��Ƃ�̍L��,��������,2022/7/20,13:00,45,23
��Ƃ�̍L��,��������,2022/7/20,14:00,33,16
��Ƃ�̍L��,��������,2022/7/20,15:00,59,10
��Ƃ�̍L��,��������,2022/7/20,16:00,45,19
��Ƃ�̍L��,��������,2022/7/20,17:00,59,23
��Ƃ�̍L��,��������,2022/7/20,18:00,47,11
��Ƃ�̍L��,��������,2022/7/20,19:00,34,17
��Ƃ�̍L��,��������,2022/7/20,20:00,19,11
��Ƃ�̍L��,��������,2022/7/20,21:00,29,12
��Ƃ�̍L��,��������,2022/7/20,22:00,20,8
��Ƃ�̍L��,��������,2022/7/20,23:00,11,7
��Ƃ�̍L��,��������,2022/7/21,0:00,3,4
��Ƃ�̍L��,��������,2022/7/21,1:00,5,0
��Ƃ�̍L��,��������,2022/7/21,2:00,3,2
��Ƃ�̍L��,��������,2022/7/21,3:00,9,2
��Ƃ�̍L��,��������,2022/7/21,4:00,5,3
��Ƃ�̍L��,��������,2022/7/21,5:00,16,0
��Ƃ�̍L��,��������,2022/7/21,6:00,19,5
��Ƃ�̍L��,��������,2022/7/21,7:00,28,11
��Ƃ�̍L��,��������,2022/7/21,8:00,44,28
��Ƃ�̍L��,��������,2022/7/21,9:00,39,26
��Ƃ�̍L��,��������,2022/7/21,10:00,73,23
��Ƃ�̍L��,��������,2022/7/21,11:00,59,29
��Ƃ�̍L��,��������,2022/7/21,12:00,67,21
��Ƃ�̍L��,��������,2022/7/21,13:00,57,19
��Ƃ�̍L��,��������,2022/7/21,14:00,41,18
��Ƃ�̍L��,��������,2022/7/21,15:00,46,11
��Ƃ�̍L��,��������,2022/7/21,16:00,41,19
��Ƃ�̍L��,��������,2022/7/21,17:00,68,18
��Ƃ�̍L��,��������,2022/7/21,18:00,32,15
��Ƃ�̍L��,��������,2022/7/21,19:00,28,17
��Ƃ�̍L��,��������,2022/7/21,20:00,15,9
��Ƃ�̍L��,��������,2022/7/21,21:00,26,14
��Ƃ�̍L��,��������,2022/7/21,22:00,13,7
��Ƃ�̍L��,��������,2022/7/21,23:00,6,5
��Ƃ�̍L��,��������,2022/7/22,0:00,12,3
��Ƃ�̍L��,��������,2022/7/22,1:00,6,1
��Ƃ�̍L��,��������,2022/7/22,2:00,4,1
��Ƃ�̍L��,��������,2022/7/22,3:00,8,2
��Ƃ�̍L��,��������,2022/7/22,4:00,6,1
��Ƃ�̍L��,��������,2022/7/22,5:00,8,2
��Ƃ�̍L��,��������,2022/7/22,6:00,23,3
��Ƃ�̍L��,��������,2022/7/22,7:00,35,13
��Ƃ�̍L��,��������,2022/7/22,8:00,50,36
��Ƃ�̍L��,��������,2022/7/22,9:00,50,23
��Ƃ�̍L��,��������,2022/7/22,10:00,57,36
��Ƃ�̍L��,��������,2022/7/22,11:00,64,32
��Ƃ�̍L��,��������,2022/7/22,12:00,73,24
��Ƃ�̍L��,��������,2022/7/22,13:00,46,20
��Ƃ�̍L��,��������,2022/7/22,14:00,60,26
��Ƃ�̍L��,��������,2022/7/22,15:00,58,29
��Ƃ�̍L��,��������,2022/7/22,16:00,50,24
��Ƃ�̍L��,��������,2022/7/22,17:00,70,35
��Ƃ�̍L��,��������,2022/7/22,18:00,64,26
��Ƃ�̍L��,��������,2022/7/22,19:00,55,29
��Ƃ�̍L��,��������,2022/7/22,20:00,45,30
��Ƃ�̍L��,��������,2022/7/22,21:00,30,25
��Ƃ�̍L��,��������,2022/7/22,22:00,28,10
��Ƃ�̍L��,��������,2022/7/22,23:00,12,8
��Ƃ�̍L��,��������,2022/7/23,0:00,15,3
��Ƃ�̍L��,��������,2022/7/23,1:00,11,5
��Ƃ�̍L��,��������,2022/7/23,2:00,19,0
��Ƃ�̍L��,��������,2022/7/23,3:00,4,1
��Ƃ�̍L��,��������,2022/7/23,4:00,14,1
��Ƃ�̍L��,��������,2022/7/23,5:00,22,0
��Ƃ�̍L��,��������,2022/7/23,6:00,18,10
��Ƃ�̍L��,��������,2022/7/23,7:00,19,13
��Ƃ�̍L��,��������,2022/7/23,8:00,49,20
��Ƃ�̍L��,��������,2022/7/23,9:00,42,38
��Ƃ�̍L��,��������,2022/7/23,10:00,74,31
��Ƃ�̍L��,��������,2022/7/23,11:00,84,37
��Ƃ�̍L��,��������,2022/7/23,12:00,101,53
��Ƃ�̍L��,��������,2022/7/23,13:00,120,49
��Ƃ�̍L��,��������,2022/7/23,14:00,99,44
��Ƃ�̍L��,��������,2022/7/23,15:00,55,16
��Ƃ�̍L��,��������,2022/7/23,16:00,0,0
��Ƃ�̍L��,��������,2022/7/23,17:00,0,0
��Ƃ�̍L��,��������,2022/7/23,18:00,0,0
��Ƃ�̍L��,��������,2022/7/23,19:00,0,0
��Ƃ�̍L��,��������,2022/7/23,20:00,0,0
��Ƃ�̍L��,��������,2022/7/23,21:00,0,0
��Ƃ�̍L��,��������,2022/7/23,22:00,0,0
��Ƃ�̍L��,��������,2022/7/23,23:00,0,0
��Ƃ�̍L��,��������,2022/7/24,0:00,0,0
��Ƃ�̍L��,��������,2022/7/24,1:00,0,0
��Ƃ�̍L��,��������,2022/7/24,2:00,0,0
��Ƃ�̍L��,��������,2022/7/24,3:00,0,0
��Ƃ�̍L��,��������,2022/7/24,4:00,0,0
��Ƃ�̍L��,��������,2022/7/24,5:00,0,0
��Ƃ�̍L��,��������,2022/7/24,6:00,0,0
��Ƃ�̍L��,��������,2022/7/24,7:00,0,0
��Ƃ�̍L��,��������,2022/7/24,8:00,0,0
��Ƃ�̍L��,��������,2022/7/24,9:00,0,0
��Ƃ�̍L��,��������,2022/7/24,10:00,0,0
��Ƃ�̍L��,��������,2022/7/24,11:00,0,0
��Ƃ�̍L��,��������,2022/7/24,12:00,0,0
��Ƃ�̍L��,��������,2022/7/24,13:00,0,0
��Ƃ�̍L��,��������,2022/7/24,14:00,0,0
��Ƃ�̍L��,��������,2022/7/24,15:00,0,0
��Ƃ�̍L��,��������,2022/7/24,16:00,0,0
��Ƃ�̍L��,��������,2022/7/24,17:00,0,0
��Ƃ�̍L��,��������,2022/7/24,18:00,0,0
��Ƃ�̍L��,��������,2022/7/24,19:00,0,0
��Ƃ�̍L��,��������,2022/7/24,20:00,0,0
��Ƃ�̍L��,��������,2022/7/24,21:00,0,0
��Ƃ�̍L��,��������,2022/7/24,22:00,0,0
��Ƃ�̍L��,��������,2022/7/24,23:00,0,0
��Ƃ�̍L��,��������,2022/7/25,0:00,0,0
��Ƃ�̍L��,��������,2022/7/25,1:00,0,0
��Ƃ�̍L��,��������,2022/7/25,2:00,0,0
��Ƃ�̍L��,��������,2022/7/25,3:00,0,0
��Ƃ�̍L��,��������,2022/7/25,4:00,0,0
��Ƃ�̍L��,��������,2022/7/25,5:00,0,0
��Ƃ�̍L��,��������,2022/7/25,6:00,0,0
��Ƃ�̍L��,��������,2022/7/25,7:00,0,0
��Ƃ�̍L��,��������,2022/7/25,8:00,0,0
��Ƃ�̍L��,��������,2022/7/25,9:00,60,24
��Ƃ�̍L��,��������,2022/7/25,10:00,50,21
��Ƃ�̍L��,��������,2022/7/25,11:00,52,21
��Ƃ�̍L��,��������,2022/7/25,12:00,76,37
��Ƃ�̍L��,��������,2022/7/25,13:00,42,19
��Ƃ�̍L��,��������,2022/7/25,14:00,45,9
��Ƃ�̍L��,��������,2022/7/25,15:00,41,15
��Ƃ�̍L��,��������,2022/7/25,16:00,40,23
��Ƃ�̍L��,��������,2022/7/25,17:00,61,22
��Ƃ�̍L��,��������,2022/7/25,18:00,47,21
��Ƃ�̍L��,��������,2022/7/25,19:00,26,6
��Ƃ�̍L��,��������,2022/7/25,20:00,21,10
��Ƃ�̍L��,��������,2022/7/25,21:00,19,7
��Ƃ�̍L��,��������,2022/7/25,22:00,13,7
��Ƃ�̍L��,��������,2022/7/25,23:00,7,5
��Ƃ�̍L��,��������,2022/7/26,0:00,9,3
��Ƃ�̍L��,��������,2022/7/26,1:00,0,0
��Ƃ�̍L��,��������,2022/7/26,2:00,3,3
��Ƃ�̍L��,��������,2022/7/26,3:00,4,2
��Ƃ�̍L��,��������,2022/7/26,4:00,2,1